Weather History for Orange, TX

Change the Weather History Date:

Sunday, September 15, 2013

  Actual Average Record
Temperature  
Mean Temperature 81 °F -  
Max Temperature 89 °F 87 °F 94 °F (1965)
Min Temperature 73 °F 67 °F 58 °F (1979)
Cooling Degree Days 16    
Growing Degree Days 31 (Base 50)    
Moisture  
Dew Point 73 °F    
Average Humidity 80    
Maximum Humidity 95    
Minimum Humidity 56    
Precipitation  
Precipitation 0.01 in - - ()
Sea Level Pressure  
Sea Level Pressure 29.99 in    
Wind  
Wind Speed 4 mph (East)    
Max Wind Speed 28 mph    
Max Gust Speed 32 mph    
Visibility 9 miles    
Events Rain    
Averages and records for this station are not official NWS values.
T = Trace of Precipitation, MM = Missing Value Source: NWS Daily Summary

Daily Weather History Graph

Daily Weather History Graph

Search for Another Location

Airport:

Trip Planner

Search our weather history database for the weather conditions in past years. The results will help you decide how hot, cold, wet, or windy it might be!

Date:

Astronomy

Sep. 15, 2013 Rise Set
Actual Time 6:59 AM CDT 7:20 PM CDT
Civil Twilight 6:35 AM CDT 7:44 PM CDT
Nautical Twilight 6:07 AM CDT 8:12 PM CDT
Astronomical Twilight 5:39 AM CDT 8:40 PM CDT
Moon 4:35 PM CDT (9/15) 2:53 AM CDT (9/15)
Length of Visible Light 13h 08m
Length of Day
12h 20m
Waxing Gibbous, 82% of the Moon is Illuminated
Sep 15
Waxing Gibbous
Sep 19
Full
Sep 26
Last Quarter
Oct 4
New
Oct 11
First Quarter

Hourly Weather History & Observations

Time (CDT) Temp. Heat Index Dew Point Humidity Pressure Visibility Wind Dir Wind Speed Gust Speed Precip Events Conditions
12:15 AM 75.6 °F - 73.4 °F 93% 29.95 in 7.0 mi North 3.5 mph - N/A   Clear
12:35 AM 75.6 °F - 73.4 °F 93% 29.95 in 7.0 mi Calm Calm - N/A   Clear
12:55 AM 74.8 °F - 72.9 °F 94% 29.95 in 5.0 mi NNW 3.5 mph - N/A   Clear
1:15 AM 74.5 °F - 72.7 °F 94% 29.95 in 5.0 mi Calm Calm - N/A   Clear
1:35 AM 73.8 °F - 72.3 °F 95% 29.95 in 4.0 mi Calm Calm - N/A   Clear
1:55 AM 73.6 °F - 72.1 °F 95% 29.95 in 5.0 mi Calm Calm - N/A   Clear
2:15 AM 73.4 °F - 72.0 °F 95% 29.95 in 5.0 mi Calm Calm - N/A   Clear
2:35 AM 73.8 °F - 72.1 °F 95% 29.95 in 7.0 mi Calm Calm - N/A   Clear
2:55 AM 73.6 °F - 72.0 °F 95% 29.95 in 7.0 mi Calm Calm - N/A   Clear
3:15 AM 73.4 °F - 71.6 °F 94% 29.95 in 5.0 mi Calm Calm - N/A   Clear
3:35 AM 73.6 °F - 72.0 °F 95% 29.95 in 7.0 mi NE 4.6 mph - N/A   Clear
3:55 AM 74.5 °F - 72.3 °F 93% 29.95 in 7.0 mi NE 5.8 mph - N/A   Clear
4:15 AM 74.7 °F - 72.1 °F 92% 29.95 in 7.0 mi NE 5.8 mph - N/A   Clear
4:35 AM 74.5 °F - 72.0 °F 92% 29.95 in 7.0 mi NE 4.6 mph - N/A   Clear
4:55 AM 74.3 °F - 71.8 °F 92% 29.95 in 7.0 mi NE 4.6 mph - N/A   Clear
5:15 AM 73.8 °F - 71.6 °F 93% 29.96 in 7.0 mi NE 3.5 mph - N/A   Clear
5:35 AM 74.1 °F - 71.6 °F 92% 29.96 in 10.0 mi ENE 4.6 mph - N/A   Clear
5:55 AM 73.9 °F - 71.6 °F 92% 29.97 in 7.0 mi NE 4.6 mph - N/A   Clear
6:15 AM 74.3 °F - 71.8 °F 92% 29.97 in 7.0 mi NE 5.8 mph - N/A   Clear
6:35 AM 74.7 °F - 72.0 °F 91% 29.98 in 7.0 mi ENE 4.6 mph - N/A   Scattered Clouds
6:55 AM 74.3 °F - 71.8 °F 92% 29.98 in 7.0 mi NE 4.6 mph - N/A   Clear
7:15 AM 74.3 °F - 71.8 °F 92% 29.98 in 7.0 mi NNE 3.5 mph - N/A   Clear
7:35 AM 74.3 °F - 72.0 °F 92% 29.98 in 5.0 mi NNE 4.6 mph - N/A   Clear
7:55 AM 74.5 °F - 72.1 °F 92% 29.99 in 5.0 mi NE 4.6 mph - N/A   Clear
8:15 AM 76.3 °F - 73.2 °F 90% 29.99 in 7.0 mi NE 5.8 mph - N/A   Clear
8:35 AM 77.9 °F - 73.6 °F 86% 30.00 in 10.0 mi NE 9.2 mph - N/A   Clear
8:55 AM 78.4 °F - 73.8 °F 85% 30.00 in 10.0 mi ENE 8.1 mph - N/A   Clear
9:15 AM 79.7 °F - 74.1 °F 83% 30.00 in 10.0 mi ENE 8.1 mph - N/A   Clear
9:35 AM 80.4 °F 85.5 °F 74.3 °F 82% 30.01 in 10.0 mi ENE 9.2 mph - N/A   Clear
9:55 AM 82.0 °F 88.6 °F 75.0 °F 79% 30.01 in 10.0 mi ENE 10.4 mph - N/A   Clear
10:15 AM 83.5 °F 91.2 °F 75.2 °F 76% 30.02 in 10.0 mi ENE 9.2 mph - N/A   Clear
10:35 AM 84.2 °F 92.6 °F 75.4 °F 75% 30.02 in 10.0 mi NE 9.2 mph - N/A   Clear
10:55 AM 85.5 °F 94.2 °F 75.2 °F 71% 30.02 in 10.0 mi ENE 9.2 mph - N/A   Scattered Clouds
11:15 AM 86.2 °F 93.8 °F 73.6 °F 66% 30.03 in 10.0 mi East 8.1 mph - N/A   Scattered Clouds
11:35 AM 87.3 °F 96.3 °F 74.8 °F 66% 30.03 in 10.0 mi East 8.1 mph - N/A   Scattered Clouds
11:55 AM 87.8 °F 96.1 °F 73.9 °F 63% 30.03 in 10.0 mi East 6.9 mph - N/A   Mostly Cloudy
12:15 PM 87.8 °F 96.6 °F 74.1 °F 64% 30.03 in 10.0 mi East 6.9 mph 10.4 mph N/A   Mostly Cloudy
12:35 PM 88.7 °F 97.7 °F 73.9 °F 62% 30.03 in 10.0 mi ESE 5.8 mph - N/A   Mostly Cloudy
12:55 PM 89.2 °F 99.0 °F 74.5 °F 62% 30.02 in 10.0 mi East 6.9 mph - N/A   Mostly Cloudy
1:15 PM 88.0 °F 96.0 °F 73.6 °F 62% 30.02 in 10.0 mi ESE 4.6 mph - N/A   Mostly Cloudy
1:35 PM 87.6 °F 95.7 °F 73.4 °F 63% 30.01 in 10.0 mi East 8.1 mph - N/A   Mostly Cloudy
1:55 PM 84.2 °F 89.6 °F 71.6 °F 66% 30.00 in 10.0 mi SSE 3.5 mph - N/A   Mostly Cloudy
2:15 PM 86.4 °F 94.2 °F 73.9 °F 66% 29.99 in 10.0 mi Calm Calm - N/A   Mostly Cloudy
2:35 PM 84.9 °F 91.1 °F 72.5 °F 66% 30.00 in 7.0 mi East 27.6 mph 32.2 mph N/A Rain Heavy Rain
2:55 PM 81.7 °F 87.3 °F 73.8 °F 77% 30.00 in 5.0 mi Calm Calm - 0.01 in Rain Light Rain
3:15 PM 85.5 °F 95.0 °F 76.1 °F 73% 29.98 in 10.0 mi East 10.4 mph 16.1 mph N/A   Mostly Cloudy
3:35 PM 84.6 °F 92.4 °F 74.7 °F 72% 29.98 in 10.0 mi East 6.9 mph - N/A   Scattered Clouds
3:55 PM 86.9 °F 95.9 °F 74.7 °F 67% 29.98 in 5.0 mi East 10.4 mph - N/A   Haze
4:15 PM 87.8 °F 96.1 °F 73.6 °F 63% 29.98 in 10.0 mi East 8.1 mph - N/A   Clear
4:35 PM 88.7 °F 95.2 °F 71.6 °F 57% 29.98 in 10.0 mi East 6.9 mph - N/A   Clear
4:55 PM 88.7 °F 94.8 °F 71.2 °F 56% 29.98 in 10.0 mi ESE 9.2 mph - N/A   Scattered Clouds
5:15 PM 87.8 °F 94.3 °F 71.8 °F 59% 29.97 in 10.0 mi East 4.6 mph - N/A   Scattered Clouds
5:35 PM 86.5 °F 93.8 °F 73.0 °F 64% 29.98 in 10.0 mi ESE 4.6 mph - N/A   Clear
5:55 PM 86.0 °F 93.8 °F 73.9 °F 67% 29.98 in 10.0 mi ESE 8.1 mph - N/A   Scattered Clouds
6:15 PM 85.6 °F 93.0 °F 73.6 °F 67% 29.98 in 10.0 mi ESE 5.8 mph - N/A   Clear
6:35 PM 85.1 °F 92.6 °F 73.9 °F 69% 29.98 in 10.0 mi ESE 8.1 mph - N/A   Clear
6:55 PM 84.2 °F 90.9 °F 73.4 °F 70% 29.98 in 10.0 mi ESE 6.9 mph - N/A   Clear
7:15 PM 83.7 °F 90.7 °F 74.3 °F 73% 29.99 in 10.0 mi SE 4.6 mph - N/A   Clear
7:35 PM 83.1 °F 89.2 °F 73.2 °F 72% 29.99 in 10.0 mi SE 5.8 mph - N/A   Clear
7:55 PM 82.2 °F 88.0 °F 73.4 °F 75% 29.99 in 10.0 mi ESE 4.6 mph - N/A   Clear
8:15 PM 81.7 °F 87.3 °F 73.9 °F 77% 30.00 in 10.0 mi ESE 3.5 mph - N/A   Clear
8:35 PM 81.5 °F 87.2 °F 73.9 °F 78% 30.00 in 10.0 mi ESE 3.5 mph - N/A   Clear
8:55 PM 80.8 °F 85.9 °F 73.9 °F 80% 30.01 in 10.0 mi ESE 4.6 mph - N/A   Clear
9:15 PM 80.2 °F 84.9 °F 73.9 °F 81% 30.01 in 10.0 mi ESE 4.6 mph - N/A   Clear
9:35 PM 79.7 °F - 74.3 °F 83% 30.02 in 10.0 mi Calm Calm - N/A   Clear
9:55 PM 79.7 °F - 74.3 °F 83% 30.02 in 10.0 mi ESE 4.6 mph - N/A   Clear
10:15 PM 79.5 °F - 74.3 °F 84% 30.02 in 10.0 mi ESE 3.5 mph - N/A   Clear
10:35 PM 79.7 °F - 74.3 °F 83% 30.02 in 10.0 mi ESE 4.6 mph - N/A   Clear
10:55 PM 79.3 °F - 74.3 °F 84% 30.03 in 10.0 mi ESE 3.5 mph - N/A   Clear
11:15 PM 79.2 °F - 74.1 °F 84% 30.03 in 10.0 mi SE 3.5 mph - N/A   Clear
11:35 PM 79.3 °F - 73.6 °F 82% 30.03 in 10.0 mi SE 3.5 mph - N/A   Clear
11:55 PM 79.2 °F - 73.6 °F 83% 30.03 in 10.0 mi Calm Calm - N/A   Clear